THORAD AGENA D DEB, 5203

Orbit data source: Space-Track

THORAD AGENA D DEB, 5203 is space debris in SSO originally from a launch on Wed, 08 Apr 1970 UTC launched from the Air Force Western Test Range (AFWTR). Debris objects in space refer to the collection of defunct objects orbiting the Earth. Examples of debris include non-operational satellites, rocket bodies, and fragments generated from explosions, collisions, or faulty payload assembly.

Loading next visibility...
Identifier
5203, 1970-025KE
Orbit
SSO
Country
Flag of USUS
Related business
Manufacturer
Unknown
Mission
Spacecraft
Bus & Motor
Unknown
Mass
Unknown
Launch date (UTC)
1970-04-08 (56 years ago)
Launch vehicle
Unknown
Launch site
Air Force Western Test Range (AFWTR)
Object type
Payload
Rocket body
Debris
Shape & HBR
Unknown shape, 0.1 m
Radar Cross Section
Small (<0.1 m²)

Expand to show TLE details & history
Last TLE update: 6 hours ago

TLE from 6 hours ago
0 THORAD AGENA D DEB
1 05203U 70025KE  26034.34077720  .00000467  00000-0  11558-2 0  9998
2 05203  99.8436  76.3763 0218418  32.9431 344.4371 13.17539402665388
Epoch: 2026-02-03T08:10Z
TLE epoch observation values (Epoch: 2026-02-03T08:10:43.150Z)
Latitude
16.42339°
Longitude
177.25695°
Altitude
1,037.145 km
Speed
7.411 km/s
True Right ascension
04h 53m 50s
True Declination
16° 20' 02"
Sunlit
Object was in daylight at epoch
Visualization orbit readout
Latitude
Unknown
Longitude
Unknown
Altitude
Unknown
Speed
Unknown
Apparent Right ascension
Unknown
Apparent Declination
Unknown
Sunlit
N/A
Visualization observer readout
Local Sidereal Time
16:32:19
Azimuth
Unknown
Elevation
Unknown
Doppler factor
Unknown
Orbital elements
Apogee altitude
1,356.818 km
Perigee altitude
1,026.149 km
Semi-major axis
7,569.621 km
Eccentricity
0.02184
Inclination
99.8436°
RAAN
76.3763°
Arg. of periapsis
32.9431°
True anomaly
343.74748°
Mean anomaly
344.4371°
Eccentric anomaly
344.09413°
Mean motion
3.29558 °/min
Orbital period
109.24 mins
BSTAR
0.0011558
Loading maneuver chart data...
Computing Atmospheric mass density...

Documentation

Showing up to 5 results
|